Regional Weather Roundup
Issued by NWS

Home | Current Version | Previous Version | Graphics & Text | Print | Product List | Glossary On
Versions: 1 2 3 4 5 6 7 8 9 10 11 12 13 14 15 16 17 18 19 20 21 22 23 24 25 26 27 28 29 30 31 32 33 34 35 36 37 38 39 40 41 42 43 44 45 46 47 48 49 50
000
ASUS43 KDTX 230701
RWRMI
MICHIGAN HOURLY REGIONAL WEATHER ROUNDUP
NATIONAL WEATHER SERVICE DETROIT/PONTIAC MI
300 AM EDT SAT MAY 23 2015

NOTE: "FAIR" INDICATES FEW OR NO CLOUDS BELOW 12,000 FEET WITH NO
SIGNIFICANT WEATHER AND/OR OBSTRUCTION TO VISIBILITY.

MIZ047>049-052>055-059>063-066>070-074>076-081>083-230800-
SOUTHEAST LOWER MICHIGAN

CITY           SKY/WX    TMP DP  RH WIND       PRES   REMARKS
ADRIAN         MOCLDY    47  33  58 E8        30.34R
ALMA           CLEAR     37  35  92 CALM      30.32R
ANN ARBOR      PTCLDY    39  29  67 CALM      30.33F
BAD AXE        CLEAR     33  23  68 CALM      30.34F
CARO           CLEAR     31  28  86 CALM      30.32F
DETROIT CITY   CLEAR     42  27  55 CALM      30.34F
DETROIT        CLOUDY    46  28  49 CALM      30.34F
FLINT          CLEAR     39  29  67 SE3       30.33S
GROSSE ILE     PTCLDY    46  32  57 E5        30.33S
HILLSDALE      MOCLDY    47  37  70 E6        30.32R
HOWELL         PTCLDY    40  28  60 SE3       30.32S

CITY           SKY/WX    TMP DP  RH WIND       PRES   REMARKS
JACKSON        MOCLDY    44  33  65 SE6       30.32S
LAMBERTVILLE   MOCLDY    46  36  66 CALM      30.33S
LANSING        PTCLDY    46  34  62 SE3       30.32S
LAPEER         FAIR      31  29  93 CALM      30.33S
MASON          PTCLDY    42  33  73 CALM      30.32S
MONROE         MOCLDY    45  34  65 CALM      30.32S
MT. CLEMENS    CLEAR     39  29  67 NW1       30.31S
PONTIAC        CLEAR     39  26  59 CALM      30.32S
PORT HOPE        N/A     38  24  57 SW8       30.32R WCI  32
PORT HURON     CLEAR     30  30 100 CALM      30.34F
TRI CITIES     CLEAR     43  29  57 CALM      30.32F
MIDLAND        FAIR      34  33  95 CALM      30.32S
TROY           CLEAR     42  28  56 CALM      30.35S
SAGINAW HB     CLEAR     39  23  52 CALM      30.31F
$$
MIZ043>046-050>051-056>058-064>065-071>073-077>080-230800-
SOUTHWEST LOWER MICHIGAN

CITY           SKY/WX    TMP DP  RH WIND       PRES   REMARKS
BATTLE CREEK   MOCLDY    52  31  44 SE8       30.31S
BENTON HARBOR  MOCLDY    41  35  79 E3        30.30S
BIG RAPIDS     CLEAR     37  32  83 CALM      30.29S
COLDWATER      MOCLDY    46  35  65 NE3       30.31S
FREMONT        FAIR      41  34  74 E3        30.28S
HOLLAND        MOCLDY    45  35  68 SE6       30.30S
GRAND RAPIDS   PTCLDY    43  35  73 CALM      30.30S
IONIA          FAIR      42  35  75 SE3       30.30S
KALAMAZOO      CLOUDY    46  34  62 CALM      30.31S
LUDINGTON      CLEAR     38  34  85 CALM      30.29S
MARSHALL       CLOUDY    47  35  63 SE3       30.31S
MOUNT PLEASANT CLEAR     37  35  94 CALM      30.30F FOG
MUSKEGON       MOCLDY    44  34  67 SE6       30.29S
SOUTH HAVEN    CLOUDY    47  34  61 S3        30.30S
$$
MIZ016>042-230800-
NORTHERN LOWER MICHIGAN

CITY           SKY/WX    TMP DP  RH WIND       PRES   REMARKS
ALPENA         CLEAR     35  29  78 SW3       30.31R
BEAVER ISLAND  CLEAR     41  27  56 SW7       30.27F
BELLAIRE       CLEAR     31  29  92 CALM      30.30F
CADILLAC       CLEAR     32  28  83 CALM      30.28F
CHARLEVOIX     CLEAR     39  30  72 S7        30.31S WCI  34
FRANKFORT      CLEAR     38  29  72 CALM      30.28S
GAYLORD        CLEAR     35  28  75 CALM      30.29S
HARBOR SPRINGS CLEAR     34  28  79 CALM      30.28F
HOUGHTON LAKE  CLEAR     31  30  96 SE3       30.31S
MANISTEE       CLEAR     34  28  80 CALM      30.29S
OSCODA         CLEAR     35  31  83 SW6       30.32R WCI  30
PELLSTON       CLEAR     27  25  92 CALM      30.29S
ROGERS CITY    CLEAR     32  28  87 CALM      30.30S
TRAVERSE CITY  CLEAR     37  29  72 CALM      30.28F
$$
MIZ007>008-015-230800-
EASTERN UPPER MICHIGAN

CITY           SKY/WX    TMP DP  RH WIND       PRES   REMARKS
KINROSS        CLEAR     34  21  60 CALM      30.26S
MACKINAC ISLAN CLEAR     39  35  85 S8        30.27S WCI  33
NEWBERRY       CLEAR     38  28  67 SW9       30.24S WCI  31
S. S. MARIE    CLEAR     32  24  72 CALM      30.26R
$$
MIZ004>006-011>014-085-230800-
CENTRAL UPPER MICHIGAN

CITY           SKY/WX    TMP DP  RH WIND       PRES   REMARKS
MANISTIQUE     CLEAR     42  31  64 SW6       30.25F
ESCANABA       CLEAR     34  28  80 CALM      30.25F
MENOMINEE      CLEAR     45  30  57 SW5       30.26S
SAWYER-GWINN   CLEAR     39  26  58 SW6       30.23S WCI  35
$$
MIZ001>003-009>011-084-230800-
WESTERN UPPER MICHIGAN

CITY           SKY/WX    TMP DP  RH WIND       PRES   REMARKS
IRON MOUNTAIN  CLEAR     36  29  75 CALM      30.23F
HOUGHTON       CLEAR     48  31  51 SW12      30.15F
COPPER HARBOR    N/A     50  29  44 W15G25    30.12F
IRONWOOD       CLEAR     55  30  38 SW6       30.17R
$$

ABBREVIATIONS USED IN REMARKS
   TC - TEMPERATURE IN CELSIUS
  WCI - WIND CHILL INDEX
   HX - HEAT INDEX
  VSB - VISIBILITY




USA.gov is the U.S. government's official web portal to all federal, state and local government web resources and services.